Location: Unspecified
(0.0000°N, 0.0000°E)
Time: 14:12:07
(UTC+00:00)

Hubble Space Telescope - Pass Details

Date: 17 May 2022
Orbit: 533 x 537 km, 28.5° (Epoch: 19 May)

Event Time Altitude Azimuth Distance (km) Brightness Sun altitude
Rises 20:22:44 0° 310° (NW) 2,656 5.3 -34.2°
Reaches altitude 10° 20:25:03 10° 316° (NW) 1,769 4.1 -34.7°
Enters shadow 20:25:28 12° 318° (NW) 1,616 3.8 -34.8°
